Location: Lawrence Hall of Science
(37.8785°N, 122.2415°W)
Time: 05:52:27
(UTC-08:00)

Daily predictions for brighter satellites

Satellite Brightness Start Highest point End
(mag) Time Altitude Azimuth Time Altitude Azimuth Time Altitude Azimuth
CENTAUR R/B 3.9 03:26:02 44° NNE 03:27:25 47° NE 03:35:30 10° ESE
Okean O Rocket 4.0 04:01:48 10° NNE 04:03:01 18° NNE 04:03:01 18° NNE
Cosmos 1980 Rocket 4.4 04:06:39 10° SSE 04:10:54 22° E 04:15:09 10° NE
Cosmos 2369 4.2 04:12:09 55° NE 04:12:09 55° NE 04:16:44 10° NNE
Cosmos 1656 4.0 04:21:45 58° NE 04:21:45 58° NE 04:26:11 10° NNE
Lacrosse 5 rocket 3.6 04:30:31 17° NNE 04:30:54 18° NE 04:33:38 10° E
CZ-3 R/B 3.4 04:25:19 38° WSW 04:32:41 55° S 04:39:58 10° ESE
BREEZE-M DEB (TANK) 3.8 04:40:34 29° ENE 04:40:34 29° ENE 04:42:04 10° E
IRS-1C Rocket 4.4 04:34:28 10° NNE 04:39:44 65° ESE 04:44:01 15° S
Cosmos 1937 Rocket 3.9 04:42:34 50° NNW 04:42:34 50° NNW 04:46:35 10° NNE
Cosmos 1697 Rocket 2.7 04:40:20 46° S 04:42:02 76° ESE 04:47:39 10° NNE
Cosmos 2227 Rocket 2.1 04:46:37 64° SW 04:46:37 64° SW 04:51:45 10° S
Cosmos 1000 Rocket 4.3 04:48:57 10° N 04:55:13 80° W 05:01:24 10° S
Okean-O 4.3 04:53:08 10° NNE 04:57:11 34° E 05:01:13 10° SSE
Cosmos 990 Rocket 4.4 04:58:41 45° NW 04:58:41 45° NW 05:03:05 10° N
Cosmos 2239 Rocket 4.3 04:52:51 10° SSW 04:58:58 75° W 05:05:08 10° N
Cosmos 2297 Rocket 2.1 04:59:12 48° WNW 05:00:24 59° WSW 05:05:56 10° S
Cosmos 1605 Rocket 4.4 05:00:57 10° S 05:07:00 62° E 05:13:01 10° NNE
CZ-4B R/B 3.2 05:02:17 10° N 05:07:34 55° WNW 05:09:48 33° SW
ASTRO E2 3.8 05:11:42 30° SSW 05:11:56 30° S 05:15:28 10° SE
SJ 16-02 1.6 05:10:12 10° S 05:14:35 67° ESE 05:18:59 10° NNE
COSMO-SKYMED 1 3.1 05:10:53 10° SSE 05:15:09 61° ENE 05:19:26 10° N
Cosmos 1933 3.8 05:11:26 10° S 05:15:28 64° E 05:19:30 10° NNE
SEDSat Delta rocket 4.3 05:16:19 24° SSW 05:17:57 31° S 05:21:45 10° ESE
CENTAUR R/B 3.4 05:13:19 22° NW 05:18:13 45° WSW 05:26:08 10° S
Cosmos 2360 4.2 05:13:39 10° SSW 05:19:22 83° ESE 05:25:07 10° NNE
Cosmos 1862 3.1 05:16:33 10° N 05:20:32 80° W 05:24:31 10° S
COSMOS 2455 4.2 05:15:54 10° NNW 05:21:31 39° NE 05:27:06 10° ESE
Meteor 2-17 Rocket 4.5 05:16:36 10° S 05:22:39 81° E 05:28:44 10° N
Cosmos 2082 4.1 05:24:33 23° NW 05:27:24 38° WSW 05:32:39 10° S
Cosmos 2285 Rocket 4.4 05:21:52 10° NW 05:27:44 38° W 05:33:34 10° SSW
DELTA 2 R/B(2) 4.1 05:29:03 41° WNW 05:30:10 87° SSW 05:32:33 10° ESE
Tiangong 1 2.3 05:32:17 20° S 05:32:17 20° S 05:33:24 10° SSE
EO 1 Del DPAF 4.3 05:30:36 10° SSE 05:34:16 46° ENE 05:37:57 10° N
Cosmos 1869 Rocket 4.0 05:33:20 10° NNW 05:37:27 39° W 05:41:35 10° SSW
NOAA 6 4.0 05:32:33 10° N 05:37:41 68° WNW 05:42:46 10° SSW
Radarsat Rocket 4.0 05:35:15 10° NNE 05:41:06 88° ESE 05:47:16 10° SSW
Cosmos 2322 Rocket 3.6 05:36:23 10° S 05:41:39 41° ESE 05:46:58 10° NE
Cosmos 1707 Rocket 4.0 05:37:41 10° SSW 05:41:51 39° WNW 05:46:05 10° N
IDEFIX/ARIANE 42P 2.5 05:36:43 10° N 05:41:54 64° WNW 05:47:02 10° SSW
MTI 3.7 05:38:46 10° SSE 05:41:57 88° ENE 05:45:09 10° NNW
Okean O Rocket 3.5 05:39:20 10° NNW 05:40:29 14° NW 05:40:29 14° NW
OAO 3 Rocket 3.7 05:41:47 22° WSW 05:44:39 49° SSW 05:49:26 10° ESE
Landsat 4 3.5 05:45:22 10° S 05:49:05 81° WSW 05:52:49 10° NNW
Cosmos 1934 Rocket 4.4 05:43:45 10° SW 05:49:38 40° WNW 05:55:35 10° N
Aureole 1 Rocket 4.4 05:43:22 10° NNW 05:50:18 44° W 05:55:45 10° SSW
CZ-2C R/B 4.3 05:48:23 10° SSW 05:52:42 36° W 05:57:00 10° NNW
Cosmos 1980 Rocket 2.5 05:49:04 10° SW 05:54:31 47° WNW 05:59:59 10° N
Cosmos 2123 Rocket 4.2 05:49:54 10° NNW 05:55:46 45° W 06:01:40 10° SSW
Hubble Space Telescope 2.9 05:53:22 10° SW 05:56:18 19° S 05:59:14 10° SE
Cosmos 1441 Rocket 3.2 05:55:19 10° SSW 05:59:16 76° W 06:03:17 10° N
PAYLOAD A 4.3 05:56:14 10° N 06:00:40 40° WNW 06:05:13 10° SW
Feng Yun 1-1 Rocket 4.5 05:55:25 10° N 06:00:42 48° WNW 06:06:07 10° SW
SKYMED 2 4.1 05:59:12 10° SSW 06:03:11 36° W 06:07:12 10° NNW
Cosmos 2242 Rocket 3.6 05:58:44 10° SSW 06:03:13 61° W 06:07:46 10° N
CZ-2C R/B 2.6 06:00:19 10° N 06:05:15 54° WNW 06:10:16 10° SSW
COSMOS 2441 4.4 06:00:40 10° N 06:05:32 66° WNW 06:10:23 10° SSW
BREEZE-M R/B 4.2 06:00:05 10° SW 06:06:33 88° SE 06:13:12 10° NE
Lacrosse 5 rocket 1.3 06:06:28 10° NW 06:10:20 60° SW 06:14:24 10° SSE
Meteor 1-26 Rocket 4.3 06:05:24 10° SSW 06:11:16 68° W 06:17:07 10° N
Cosmos 1633 3.2 06:08:51 10° N 06:12:26 59° E 06:16:02 10° SSE
Cosmos 1048 Rocket 4.1 06:10:46 10° NNW 06:15:47 54° WSW 06:20:44 10° S
ATLAS 5 CENTAUR R/B 1.6 06:12:16 10° SSW 06:16:42 85° WNW 06:21:35 10° NNE
Cosmos 1437 Rocket 4.3 06:17:08 10° N 06:21:01 42° ENE 06:24:50 10° SSE
SL-16 R/B 2.2 06:19:24 10° SSW 06:25:04 80° WNW 06:30:46 10° NNE
Cosmos 1703 Rocket 4.0 06:21:34 10° S 06:25:59 70° E 06:30:27 10° NNE
Cosmos 1697 Rocket 4.2 06:23:19 10° W 06:26:37 16° NW 06:29:57 10° NNW
Cosmos 1125 Rocket 4.4 06:25:17 10° WSW 06:29:41 27° WNW 06:34:07 10° N
Meteor 1-14 Rocket 4.4 06:23:49 10° NNW 06:29:47 69° W 06:35:38 10° S
